User: anonymous   Login
Location: Cutler
(25.6150°N, 80.3110°W)
Time: 21:47:00
(UTC-04:00)
Language:

Cosmos 2360 Rocket - Orbit

View from above orbital plane
View from above orbital plane
View from above satellite
View from above satellite

Ground track
Ground track

The orbit data is extracted from the following two-line orbital elements,

1 25407U 98045B   17177.12411095 -.00000078 +00000-0 -15269-4 0  9994
2 25407 071.0112 022.6524 0008588 206.9897 153.0780 14.15759119977441
Epoch (UTC): 26 June 2017 02:58:43
Eccentricity: 0.0008588
inclination: 71.0112°
perigee height: 833 km
apogee height: 846 km
right ascension of ascending node: 22.6524°
argument of perigee: 206.9897°
revolutions per day: 14.15759119
mean anomaly at epoch: 153.0780°
orbit number at epoch: 97744

The dashed part of the orbit path shows where the satellite is in the earth's shadow,  

DLR